Volver al catálogo

STARLINK-11147

ActivoComunicacionesVLEO
NORAD 60301·PAYLOAD·🇺🇸 United States

Lanzado Jul 28, 2024 desde Vandenberg Space Force Base

Loading…

Próximos Pases (próximas 24 horas)

TLE

ActualizadoSource: CelesTrak SupGP

Época: Sep 14, 2026, 22:20 UTC

1 60301C 24133A   26257.93104167  .00004659  00000+0  38378-4 0  2579
2 60301  53.1563 293.5486 0001191  94.9571 266.3400 15.69704957    14

Sigue STARLINK-11147 en tiempo real con AllMySat

Download on the App Store